Weather History for Los Alamos, NM

Change the Weather History Date:

Sunday, January 6, 2013

  Actual Average Record
Temperature  
Mean Temperature 26 °F -  
Max Temperature 36 °F 37 °F 55 °F (1956)
Min Temperature 16 °F 16 °F -16 °F (1971)
Degree Days  
Heating Degree Days 39    
Moisture  
Dew Point 5 °F    
Average Humidity 40    
Maximum Humidity 59    
Minimum Humidity 26    
Precipitation  
Precipitation 0.00 in - - ()
Sea Level Pressure  
Sea Level Pressure 30.27 in    
Wind  
Wind Speed 4 mph (SW)    
Max Wind Speed 10 mph    
Max Gust Speed -    
Visibility 10 miles    
Events      
Averages and records for this station are not official NWS values.
T = Trace of Precipitation, MM = Missing Value Source: NWS Daily Summary

Daily Weather History Graph

Daily Weather History Graph

Search for Another Location

Airport:

Trip Planner

Search our weather history database for the weather conditions in past years. The results will help you decide how hot, cold, wet, or windy it might be!

Date:

Astronomy

Jan. 06, 2013 Rise Set
Actual Time 7:15 AM MST 5:06 PM MST
Civil Twilight 6:47 AM MST 5:34 PM MST
Nautical Twilight 6:15 AM MST 6:06 PM MST
Astronomical Twilight 5:44 AM MST 6:37 PM MST
Moon 1:37 AM MST (1/6) 12:32 PM MST (1/6)
Length of Visible Light 10h 47m
Length of Day
9h 50m
Waning Crescent, 32% of the Moon is Illuminated
Jan 6
Waning Crescent
Jan 11
New
Jan 18
First Quarter
Jan 26
Full
Feb 3
Last Quarter

Hourly Weather History & Observations

Time (MST) Temp. Windchill Dew Point Humidity Pressure Visibility Wind Dir Wind Speed Gust Speed Precip Events Conditions
12:15 AM 20.8 °F 16.0 °F 6.8 °F 55% 30.34 in 10.0 mi NNW 3.5 mph - N/A   Clear
12:35 AM 21.6 °F 16.8 °F 5.4 °F 50% 30.34 in 10.0 mi North 3.5 mph - N/A   Clear
12:55 AM 21.2 °F 16.4 °F 5.4 °F 51% 30.34 in 10.0 mi NNW 3.5 mph - N/A   Clear
1:15 AM 22.8 °F 13.6 °F 4.6 °F 46% 30.34 in 10.0 mi North 8.1 mph - N/A   Clear
1:35 AM 23.4 °F 16.2 °F 3.4 °F 42% 30.34 in 10.0 mi North 5.8 mph - N/A   Clear
1:55 AM 23.0 °F - 2.7 °F 42% 30.34 in 10.0 mi Calm Calm - N/A   Clear
2:15 AM 20.8 °F - 4.3 °F 49% 30.34 in 10.0 mi Calm Calm - N/A   Clear
2:35 AM 21.0 °F 16.2 °F 4.3 °F 49% 30.34 in 10.0 mi NNW 3.5 mph - N/A   Clear
2:55 AM 21.7 °F - 3.9 °F 46% 30.34 in 10.0 mi Calm Calm - N/A   Clear
3:15 AM 21.9 °F - 4.1 °F 46% 30.34 in 10.0 mi Calm Calm - N/A   Clear
3:35 AM 20.3 °F 15.4 °F 4.6 °F 51% 30.33 in 10.0 mi North 3.5 mph - N/A   Clear
3:55 AM 18.3 °F - 5.0 °F 56% 30.33 in 10.0 mi Calm Calm - N/A   Clear
4:15 AM 16.0 °F 8.8 °F 3.9 °F 59% 30.33 in 10.0 mi North 4.6 mph - N/A   Clear
4:35 AM 18.9 °F 13.7 °F 3.2 °F 51% 30.32 in - North 3.5 mph - N/A   Clear
4:55 AM 19.6 °F 10.6 °F 3.0 °F 49% 30.32 in - North 6.9 mph - N/A   Clear
5:35 AM 19.8 °F 13.2 °F 2.1 °F 46% 30.32 in - North 4.6 mph - N/A   Clear
5:55 AM 19.0 °F 12.3 °F 1.9 °F 47% 30.32 in - North 4.6 mph - N/A   Clear
6:15 AM 19.2 °F 14.1 °F 1.9 °F 47% 30.33 in - NNW 3.5 mph - N/A   Clear
6:35 AM 19.4 °F 12.8 °F 1.8 °F 46% 30.33 in - North 4.6 mph - N/A   Clear
6:55 AM 18.9 °F 12.1 °F 1.4 °F 47% 30.33 in - North 4.6 mph - N/A   Clear
7:15 AM 16.7 °F 11.2 °F 1.4 °F 51% 30.34 in - North 3.5 mph - N/A   Clear
7:35 AM 17.6 °F 10.7 °F 1.0 °F 48% 30.35 in - NNW 4.6 mph - N/A   Clear
7:55 AM 18.0 °F 12.7 °F 0.9 °F 47% 30.35 in 10.0 mi North 3.5 mph - N/A   Clear
8:15 AM 17.6 °F 12.3 °F 1.0 °F 48% 30.35 in 10.0 mi NNE 3.5 mph - N/A   Clear
8:35 AM 16.7 °F 11.2 °F 1.4 °F 51% 30.35 in 10.0 mi North 3.5 mph - N/A   Clear
8:55 AM 18.9 °F 13.7 °F 1.4 °F 47% 30.35 in 10.0 mi North 3.5 mph - N/A   Clear
9:15 AM 19.4 °F 14.3 °F 2.1 °F 47% 30.35 in 10.0 mi North 3.5 mph - N/A   Clear
9:35 AM 20.3 °F - 2.5 °F 46% 30.36 in 10.0 mi Calm Calm - N/A   Clear
9:55 AM 21.7 °F - 2.8 °F 44% 30.36 in 10.0 mi Calm Calm - N/A   Clear
10:15 AM 23.0 °F - 3.4 °F 43% 30.35 in 10.0 mi Calm Calm - N/A   Clear
10:35 AM 23.9 °F - 3.4 °F 41% 30.34 in 10.0 mi Calm Calm - N/A   Clear
10:55 AM 24.8 °F - 4.1 °F 41% 30.33 in 10.0 mi Calm Calm - N/A   Clear
11:15 AM 26.6 °F - 4.6 °F 39% 30.31 in 10.0 mi Calm Calm - N/A   Clear
11:35 AM 27.9 °F - 4.8 °F 38% 30.31 in 10.0 mi Calm Calm - N/A   Clear
11:55 AM 27.5 °F - 5.4 °F 39% 30.29 in 10.0 mi Calm Calm - N/A   Clear
12:15 PM 27.9 °F - 6.3 °F 40% 30.28 in 10.0 mi Calm Calm - N/A   Clear
12:35 PM 30.9 °F - 5.2 °F 34% 30.27 in 10.0 mi Calm Calm - N/A   Clear
12:55 PM 31.5 °F - 4.5 °F 32% 30.25 in 10.0 mi Calm Calm - N/A   Clear
1:15 PM 32.2 °F - 5.4 °F 32% 30.24 in 10.0 mi Calm Calm - N/A   Clear
1:35 PM 34.0 °F - 6.3 °F 31% 30.23 in 10.0 mi Calm Calm - N/A   Clear
1:55 PM 35.1 °F - 7.3 °F 31% 30.23 in 10.0 mi Calm Calm - N/A   Clear
2:15 PM 35.2 °F - 8.1 °F 32% 30.22 in 10.0 mi Calm Calm - N/A   Clear
2:35 PM 36.0 °F - 8.1 °F 31% 30.21 in 10.0 mi Calm Calm - N/A   Clear
2:55 PM 36.9 °F 31.4 °F 7.9 °F 30% 30.21 in 10.0 mi SSE 6.9 mph - N/A   Clear
3:35 PM 36.9 °F 29.6 °F 6.4 °F 28% 30.20 in 10.0 mi South 10.4 mph - N/A   Clear
3:55 PM 36.5 °F 30.3 °F 6.1 °F 28% 30.20 in 10.0 mi South 8.1 mph - N/A   Clear
4:15 PM 35.6 °F 29.9 °F 7.3 °F 31% 30.19 in 10.0 mi South 6.9 mph - N/A   Clear
4:35 PM 34.9 °F 29.0 °F 7.7 °F 32% 30.19 in 10.0 mi South 6.9 mph - N/A   Clear
4:55 PM 34.0 °F 27.2 °F 7.5 °F 33% 30.19 in 10.0 mi South 8.1 mph - N/A   Clear
5:15 PM 34.0 °F 28.8 °F 6.4 °F 32% 30.19 in 10.0 mi South 5.8 mph - N/A   Clear
5:35 PM 33.3 °F 25.7 °F 6.3 °F 32% 30.19 in 10.0 mi South 9.2 mph - N/A   Clear
5:55 PM 35.1 °F 27.9 °F 4.3 °F 27% 30.19 in 10.0 mi South 9.2 mph - N/A   Clear
6:15 PM 34.7 °F 28.1 °F 4.5 °F 28% 30.18 in 10.0 mi South 8.1 mph - N/A   Clear
6:35 PM 35.8 °F 29.4 °F 3.6 °F 26% 30.18 in 10.0 mi South 8.1 mph - N/A   Clear
6:55 PM 35.6 °F 29.9 °F 3.6 °F 26% 30.18 in 10.0 mi South 6.9 mph - N/A   Clear
7:15 PM 35.6 °F 29.2 °F 3.7 °F 26% 30.18 in 10.0 mi South 8.1 mph - N/A   Clear
7:35 PM 35.8 °F 30.1 °F 5.5 °F 28% 30.17 in 10.0 mi South 6.9 mph - N/A   Clear
8:15 PM 34.5 °F 28.6 °F 5.4 °F 29% 30.17 in 10.0 mi South 6.9 mph - N/A   Clear
8:55 PM 34.2 °F 28.2 °F 6.3 °F 31% 30.16 in 10.0 mi South 6.9 mph - N/A   Clear
9:15 PM 34.0 °F 26.0 °F 6.8 °F 32% 30.15 in 10.0 mi South 10.4 mph - N/A   Clear
9:35 PM 33.3 °F 26.4 °F 7.0 °F 33% 30.15 in 10.0 mi South 8.1 mph - N/A   Clear
9:55 PM 32.9 °F 25.3 °F 7.2 °F 34% 30.15 in 10.0 mi South 9.2 mph - N/A   Clear
10:35 PM 32.4 °F 26.0 °F 8.1 °F 36% 30.15 in 10.0 mi South 6.9 mph - N/A   Scattered Clouds
10:55 PM 32.2 °F 25.0 °F 8.4 °F 37% 30.15 in 10.0 mi South 8.1 mph - N/A   Overcast
11:15 PM 32.0 °F 25.6 °F 9.0 °F 38% 30.14 in 10.0 mi South 6.9 mph - N/A   Overcast
11:35 PM 32.0 °F 24.8 °F 9.5 °F 39% 30.14 in 10.0 mi South 8.1 mph - N/A   Scattered Clouds
11:55 PM 32.0 °F 27.5 °F 9.0 °F 38% 30.13 in 10.0 mi SSW 4.6 mph - N/A   Mostly Cloudy